Weather History for Andalusia, AL

Change the Weather History Date:

Thursday, December 6, 2012

  Actual Average (KCEW) Record (KCEW)
Temperature  
Mean Temperature 65 °F -  
Max Temperature 77 °F 65 °F 80 °F (1951)
Min Temperature 53 °F 36 °F 24 °F (2000)
Growing Degree Days 15 (Base 50)    
Moisture  
Dew Point 52 °F    
Average Humidity 68    
Maximum Humidity 86    
Minimum Humidity 39    
Precipitation  
Precipitation 0.00 in - - ()
Sea Level Pressure  
Sea Level Pressure 30.03 in    
Wind  
Wind Speed 3 mph (ESE)    
Max Wind Speed 12 mph    
Max Gust Speed -    
Visibility 10 miles    
Events      
Averages and records for this station are not official NWS values.
T = Trace of Precipitation, MM = Missing Value Source: NWS Daily Summary

Daily Weather History Graph

Daily Weather History Graph

Search for Another Location

Airport:

Trip Planner

Search our weather history database for the weather conditions in past years. The results will help you decide how hot, cold, wet, or windy it might be!

Date:

Astronomy

Dec. 06, 2012 Rise Set
Actual Time 6:31 AM CST 4:42 PM CST
Civil Twilight 6:04 AM CST 5:09 PM CST
Nautical Twilight 5:34 AM CST 5:39 PM CST
Astronomical Twilight 5:04 AM CST 6:08 PM CST
Moon No Moon Rise 11:45 AM CST (12/6)
Length of Visible Light 11h 04m
Length of Day
10h 11m
Waning Gibbous, 49% of the Moon is Illuminated
Dec 6
Waning Gibbous
Dec 13
New
Dec 19
First Quarter
Dec 28
Full
Jan 4
Last Quarter

Hourly Weather History & Observations

Time (CST) Temp. Dew Point Humidity Pressure Visibility Wind Dir Wind Speed Gust Speed Precip Events Conditions
12:56 AM 55.9 °F 51.1 °F 84% 30.06 in 10.0 mi Calm Calm - N/A   Mostly Cloudy
1:56 AM 55.9 °F 51.1 °F 84% 30.05 in 10.0 mi Calm Calm - N/A   Clear
2:56 AM 53.1 °F 48.9 °F 86% 30.03 in 8.0 mi Calm Calm - N/A   Clear
3:56 AM 53.1 °F 48.9 °F 86% 30.04 in 10.0 mi Calm Calm - N/A   Clear
4:56 AM 54.0 °F 48.9 °F 83% 30.04 in 10.0 mi East 3.5 mph - N/A   Clear
5:56 AM 53.1 °F 48.0 °F 83% 30.06 in 10.0 mi Calm Calm - N/A   Clear
6:56 AM 54.0 °F 48.9 °F 83% 30.07 in 10.0 mi Calm Calm - N/A   Clear
7:56 AM 59.0 °F 52.0 °F 78% 30.07 in 10.0 mi ESE 4.6 mph - N/A   Clear
8:56 AM 64.9 °F 54.0 °F 68% 30.08 in 10.0 mi ESE 6.9 mph - N/A   Clear
9:56 AM 71.1 °F 55.9 °F 59% 30.08 in 10.0 mi SSE 8.1 mph - N/A   Clear
10:56 AM 73.0 °F 55.0 °F 53% 30.05 in 10.0 mi SE 6.9 mph - N/A   Clear
11:56 AM 75.9 °F 52.0 °F 43% 30.02 in 10.0 mi SE 9.2 mph - N/A   Clear
12:56 PM 77.0 °F 51.1 °F 40% 30.00 in 10.0 mi Variable 3.5 mph - N/A   Clear
1:56 PM 77.0 °F 50.0 °F 39% 29.99 in 10.0 mi SE 5.8 mph - N/A   Partly Cloudy
2:56 PM 77.0 °F 50.0 °F 39% 29.98 in 10.0 mi East 11.5 mph - N/A   Mostly Cloudy
3:56 PM 73.9 °F 50.0 °F 43% 29.98 in 10.0 mi ESE 6.9 mph - N/A   Clear
4:56 PM 68.0 °F 53.1 °F 59% 29.99 in 10.0 mi Calm Calm - N/A   Partly Cloudy
5:56 PM 64.9 °F 53.1 °F 65% 30.00 in 10.0 mi SE 3.5 mph - N/A   Clear
6:56 PM 63.0 °F 53.1 °F 70% 30.01 in 10.0 mi SE 4.6 mph - N/A   Clear
7:56 PM 62.1 °F 54.0 °F 75% 30.01 in 10.0 mi ESE 5.8 mph - N/A   Clear
8:56 PM 62.1 °F 55.0 °F 78% 30.01 in 10.0 mi East 5.8 mph - N/A   Scattered Clouds
9:56 PM 61.0 °F 54.0 °F 78% 30.02 in 10.0 mi ESE 5.8 mph - N/A   Mostly Cloudy
10:56 PM 61.0 °F 54.0 °F 78% 30.01 in 10.0 mi ESE 6.9 mph - N/A   Clear
11:56 PM 59.0 °F 54.0 °F 83% 30.00 in 10.0 mi ESE 6.9 mph - N/A   Clear